User: anonymous   Login
Location: *
(35.8942°N, 23.3025°E)
Time: 19:55:07
(UTC+00:00)
Language:

EO-88 - Orbit

View from above orbital plane
View from above orbital plane
View from above satellite
View from above satellite

Ground track
Ground track

The orbit data is extracted from the following two-line orbital elements,

1 42017U 17008BX  23199.44167461  .08967960  24048-5  93873-3 0  9998
2 42017  97.1901 272.9585 0015059 261.6732  98.2859 16.37376287358454
Epoch (UTC): 18 July 2023 10:36:00
Eccentricity: 0.0015059
inclination: 97.1901°
perigee height: 163 km
apogee height: 182 km
right ascension of ascending node: 272.9585°
argument of perigee: 261.6732°
revolutions per day: 16.37376287
mean anomaly at epoch: 98.2859°
orbit number at epoch: 35845

The dashed part of the orbit path shows where the satellite is in the earth's shadow,  

DLR